Terminal Aerodrome Forecast
Issued by NWS

Home | Current Version | Previous Version | Text Only | Print | Product List | Glossary On
Versions: 1 2 3 4 5 6 7 8 9 10 11 12 13 14 15 16 17 18 19 20 21
000
FTUS41 KGYX 231302 AAA
TAFHIE
TAF AMD
KHIE 231302Z 2313/2412 00000KT P6SM OVC002
     FM231400 VRB03KT P6SM SCT002 SCT080
     FM231500 03005KT P6SM BKN050=

USA.gov is the U.S. government's official web portal to all federal, state and local government web resources and services.